EW4397 Weather Reports


time (UTC)temp
C
wind
direction
speed
KPH
gust
KPH
rain 1hr
cm
rain 24hr
cm
rain mn
cm
humidity
%
barometer
mb
20260510073007 21 135 0.0 1.6 0.00 0.58 0.03 98 1011.1
20260510071510 21 223 0.0 0.0 0.00 0.58 0.03 98 1012.7
20260510070003 21 223 0.0 0.0 0.00 0.58 0.03 98 1012.6
20260510064510 21 223 0.0 0.0 0.00 0.58 0.03 98 1012.4
20260510063101 21 223 0.0 0.0 0.00 0.58 0.03 97 1012.6
20260510061600 21 223 0.0 0.0 0.00 0.58 0.03 97 1012.8
20260510060057 21 223 0.0 0.0 0.00 0.58 0.03 97 1012.9
20260510054600 21 223 0.0 1.6 0.00 0.58 0.03 97 1013.1
20260510053054 21 223 0.0 0.0 0.00 0.58 0.03 97 1013.2
20260510051603 21 223 0.0 0.0 0.03 0.58 0.03 97 1013.4
20260510050059 21 223 0.0 0.0 0.03 0.58 0.03 97 1013.6
20260510044557 21 223 0.0 0.0 0.03 0.89 0.03 97 1013.7
20260510043050 21 223 0.0 0.0 0.03 0.89 0.03 97 1013.6
20260510041602 21 223 0.0 0.0 0.00 0.86 0.00 97 1013.7
20260510040046 21 223 0.0 0.0 0.00 0.86 0.00 97 1013.5
20260510034551 21 223 0.0 0.0 0.00 1.12 0.86 97 1013.5
20260510033047 21 223 0.0 3.2 0.00 1.12 0.86 97 1013.7
20260510031549 21 272 0.0 0.0 0.00 1.12 0.86 97 1013.5
20260510030054 21 272 0.0 0.0 0.00 1.12 0.86 97 1013.3
20260510024549 21 272 0.0 0.0 0.00 2.11 0.86 97 1013.2
20260510023043 21 272 0.0 0.0 0.00 2.11 0.86 97 1013.0
20260510021543 21 272 0.0 0.0 0.00 2.11 0.86 97 1012.7
20260510020042 21 272 0.0 1.6 0.00 2.11 0.86 97 1012.7
20260510014542 21 208 0.0 1.6 0.00 3.02 0.86 97 1012.9
20260510013050 21 208 0.0 0.0 0.00 3.02 0.86 96 1012.5
20260510011541 21 208 0.0 0.0 0.00 3.02 0.86 97 1012.3
20260510010040 21 208 0.0 0.0 0.00 3.02 0.86 97 1012.4
20260510004540 21 208 0.0 0.0 0.00 3.02 0.86 96 1011.8
20260510003051 22 209 1.6 3.2 0.00 3.02 0.86 96 1012.0
20260510001539 22 217 0.0 1.6 0.00 3.02 0.86 96 1012.5
20260510000038 22 217 0.0 0.0 0.00 3.02 0.86 96 1012.6
20260509234556 22 217 0.0 0.0 0.00 3.02 0.86 96 1012.5
20260509233045 22 217 0.0 1.6 0.00 3.02 0.86 96 1012.4
20260509231555 22 217 0.0 0.0 0.00 3.02 0.86 96 1012.4
20260509230036 22 217 0.0 1.6 0.00 3.02 0.86 96 1012.3
20260509224536 22 217 0.0 1.6 0.00 3.02 0.86 95 1012.2
20260509223037 22 217 0.0 0.0 0.00 3.02 0.86 95 1012.1
20260509221535 22 88 0.0 1.6 0.05 3.02 0.86 95 1012.0
20260509220035 22 81 0.0 3.2 0.10 3.02 0.86 95 1012.0
20260509214534 22 88 0.0 4.8 0.15 3.02 0.86 95 1012.0
20260509213034 22 98 0.0 3.2 0.20 3.02 0.86 95 1012.0
20260509211534 22 90 0.0 4.8 0.23 2.97 0.81 95 1012.2
20260509210036 22 276 0.0 1.6 0.25 2.90 0.76 95 1012.2
20260509204534 22 269 0.0 1.6 0.25 2.84 0.71 95 1012.3
20260509203039 22 264 0.0 6.4 0.23 2.79 0.64 94 1012.4
20260509201531 22 276 0.0 3.2 0.20 2.72 0.56 94 1012.4
20260509200034 22 279 1.6 4.8 0.18 2.67 0.51 92 1012.3
20260509194530 23 273 0.0 4.8 0.13 2.62 0.46 91 1012.4
20260509193031 25 291 3.2 4.8 0.08 2.57 0.41 88 1012.2
20260509191530 25 220 0.0 1.6 0.03 2.51 0.36 88 1012.0
20260509190033 25 219 0.0 3.2 0.03 2.49 0.33 86 1011.8
20260509184539 25 221 0.0 3.2 0.03 2.49 0.33 86 1011.8
20260509183033 25 225 0.0 3.2 0.03 2.49 0.33 88 1012.1
20260509181526 26 225 0.0 3.2 0.03 2.49 0.33 82 1011.9
20260509180025 27 207 3.2 8.0 0.00 2.46 0.30 79 1012.1
20260509174525 27 213 1.6 8.0 0.00 2.46 0.30 79 1012.3
20260509173027 27 210 1.6 9.7 0.00 2.46 0.30 79 1012.2
20260509171528 26 200 3.2 8.0 0.00 2.46 0.30 80 1012.3
20260509170018 26 233 1.6 8.0 0.00 2.46 0.30 81 1012.4
20260509164515 26 195 3.2 9.7 0.00 2.46 0.30 82 1012.6
20260509163022 26 106 3.2 6.4 0.00 2.46 0.30 82 1012.5
20260509161518 26 192 3.2 9.7 0.00 2.46 0.30 84 1012.8
20260509160009 25 94 0.0 6.4 0.00 2.46 0.30 86 1012.4
20260509154505 24 100 1.6 4.8 0.00 2.46 0.30 87 1012.1
20260509153006 23 111 3.2 8.0 0.00 2.46 0.30 87 1012.8
20260509151612 23 129 0.0 4.8 0.00 2.46 0.30 88 1013.1
20260509150109 23 280 0.0 3.2 0.00 2.46 0.30 88 1013.5
20260509144559 23 97 0.0 1.6 0.00 2.46 0.30 90 1013.5
20260509143054 22 97 0.0 3.2 0.00 2.46 0.30 91 1013.3
20260509141543 22 97 0.0 1.6 0.00 2.46 0.30 91 1013.1
20260509140042 22 265 0.0 1.6 0.00 2.46 0.30 92 1013.1
20260509134539 22 262 0.0 3.2 0.00 2.46 0.30 95 1013.0
20260509133036 21 287 0.0 1.6 0.00 2.46 0.30 95 1012.9
20260509131534 21 90 0.0 1.6 0.00 2.46 0.30 96 1012.6
20260509130033 21 80 0.0 3.2 0.00 2.46 0.30 97 1012.4
20260509124540 21 93 0.0 1.6 0.00 2.46 0.30 97 1012.5
20260509123032 21 93 0.0 3.2 0.00 2.46 0.30 97 1012.1
20260509121541 20 150 0.0 0.0 0.00 2.46 0.30 97 1012.4
20260509120028 20 150 0.0 0.0 0.00 2.46 0.30 97 1012.2
20260509114547 20 150 0.0 0.0 0.00 2.46 0.30 97 1012.1
20260509113026 19 150 0.0 1.6 0.00 2.46 0.30 97 1012.0
20260509111525 19 248 0.0 0.0 0.00 2.46 0.30 97 1012.0
20260509110024 19 246 0.0 0.0 0.00 2.46 0.30 96 1011.7
20260509104526 19 245 0.0 1.6 0.00 2.46 0.30 97 1011.1
20260509103023 19 245 0.0 1.6 0.00 2.46 0.30 97 1011.1
20260509101524 20 245 0.0 1.6 0.00 2.46 0.30 96 1011.0
20260509100021 20 188 0.0 1.6 0.00 2.46 0.30 97 1010.4
20260509094524 20 187 0.0 1.6 0.00 2.46 0.30 97 1010.4
20260509093020 20 192 0.0 8.0 0.00 2.46 0.30 97 1010.1
20260509091519 20 194 1.6 8.0 0.00 2.46 0.30 97 1010.1
20260509090042 20 217 1.6 8.0 0.00 2.46 0.30 97 1009.9
20260509084521 20 190 0.0 1.6 0.00 2.46 0.30 97 1010.8
20260509083037 20 190 0.0 0.0 0.00 2.46 0.30 97 1011.5
20260509081523 20 189 0.0 0.0 0.00 2.46 0.30 97 1011.6
20260509080013 20 188 0.0 0.0 0.00 2.46 0.30 97 1011.1
20260509074526 20 188 0.0 4.8 0.00 2.46 0.30 97 1011.2